Location: ??????
(38.0677°N, 22.9870°E)
Time: 11:40:52
(UTC+00:00)

Cosmos 2082 Rocket - Pass Details

Date: 23 May 2024
Orbit: 832 x 853 km, 71.0° (Epoch: 18 June)

Event Time Altitude Azimuth Distance (km) Brightness Sun altitude
Exits shadow 00:06:57 27° 287° (WNW) 1,572 3.5 -26.6°
Maximum altitude 00:07:46 28° 302° (WNW) 1,538 3.5 -26.5°
Drops below altitude 10° 00:12:39 10° 1° (N) 2,489 5.4 -26.1°
Sets 00:15:28 0° 13° (NNE) 3,427 6.6 -25.8°
